Weather History for Chanute, KS

Change the Weather History Date:

Saturday, December 14, 2013

  Actual Average Record
Temperature  
Mean Temperature 28 °F 34 °F  
Max Temperature 36 °F 44 °F 73 °F (1933)
Min Temperature 20 °F 25 °F -6 °F (1901)
Degree Days  
Heating Degree Days 37 30  
Month to date heating degree days 507 398  
Since 1 July heating degree days 1427 1250  
Cooling Degree Days 0 0  
Month to date cooling degree days 0 0  
Year to date cooling degree days 1560 1532  
Moisture  
Dew Point 26 °F    
Average Humidity 85    
Maximum Humidity 100    
Minimum Humidity 69    
Precipitation  
Precipitation 0.00 in 0.06 in 1.84 in (1971)
Month to date precipitation 0.16 0.87  
Year to date precipitation 47.75 41.19  
Sea Level Pressure  
Sea Level Pressure 30.08 in    
Wind  
Wind Speed 11 mph (NW)    
Max Wind Speed 23 mph    
Max Gust Speed 30 mph    
Visibility 5 miles    
Events Fog    
T = Trace of Precipitation, MM = Missing Value Source: NWS Daily Summary

Daily Weather History Graph

Daily Weather History Graph

Search for Another Location

Airport:

Trip Planner

Search our weather history database for the weather conditions in past years. The results will help you decide how hot, cold, wet, or windy it might be!

Date:

Astronomy

Dec. 14, 2013 Rise Set
Actual Time 7:29 AM CST 5:04 PM CST
Civil Twilight 7:00 AM CST 5:33 PM CST
Nautical Twilight 6:27 AM CST 6:06 PM CST
Astronomical Twilight 5:55 AM CST 6:38 PM CST
Moon 3:25 PM CST (12/14) 4:52 AM CST (12/14)
Length of Visible Light 10h 33m
Length of Day
9h 34m
Waxing Gibbous, 94% of the Moon is Illuminated
Dec 14
Waxing Gibbous
Dec 17
Full
Dec 25
Last Quarter
Jan 1
New
Jan 7
First Quarter

Hourly Weather History & Observations

Time (CST) Temp. Windchill Dew Point Humidity Pressure Visibility Wind Dir Wind Speed Gust Speed Precip Events Conditions
12:03 AM 36.0 °F 32.1 °F 35.1 °F 97% 29.87 in 0.5 mi NW 4.6 mph - N/A Fog Fog
12:14 AM 36.0 °F 31.1 °F 35.1 °F 97% 29.87 in 1.0 mi NW 5.8 mph - N/A   Mist
12:21 AM 36.0 °F 31.1 °F 35.1 °F 97% 29.87 in 1.2 mi NW 5.8 mph - N/A   Overcast
12:29 AM 36.0 °F 30.3 °F 35.1 °F 97% 29.87 in 1.2 mi NW 6.9 mph - N/A   Overcast
12:44 AM 36.0 °F 29.6 °F 35.1 °F 97% 29.87 in 1.8 mi NW 8.1 mph - N/A   Overcast
12:52 AM 36.0 °F 29.0 °F 35.1 °F 97% 29.88 in 2.0 mi NW 9.2 mph - N/A   Overcast
1:25 AM 36.0 °F 29.6 °F 35.1 °F 97% 29.87 in 3.0 mi NW 8.1 mph - N/A   Overcast
1:52 AM 36.0 °F 28.0 °F 35.1 °F 97% 29.89 in 4.0 mi NNW 11.5 mph - N/A   Overcast
2:28 AM 36.0 °F 27.1 °F 34.0 °F 93% 29.89 in 6.0 mi North 13.8 mph - N/A   Overcast
2:52 AM 35.1 °F 25.5 °F 33.1 °F 92% 29.93 in 6.0 mi NNW 15.0 mph 23.0 mph N/A   Overcast
3:09 AM 34.0 °F 23.4 °F 32.0 °F 92% 29.92 in 5.0 mi NNW 17.3 mph 24.2 mph N/A   Overcast
3:52 AM 33.1 °F 23.0 °F 30.9 °F 92% 29.96 in 6.0 mi North 15.0 mph - N/A   Overcast
4:52 AM 32.0 °F 20.8 °F 30.0 °F 92% 29.97 in 4.0 mi NNW 17.3 mph 25.3 mph N/A   Overcast
5:52 AM 30.0 °F 18.7 °F 28.0 °F 92% 30.01 in 3.0 mi NNW 16.1 mph 24.2 mph N/A   Overcast
6:52 AM 28.9 °F 18.6 °F 27.0 °F 92% 30.07 in 3.0 mi NNW 12.7 mph 23.0 mph N/A   Overcast
7:52 AM 28.0 °F 16.1 °F 25.0 °F 88% 30.11 in 3.0 mi NNW 16.1 mph 29.9 mph N/A   Overcast
8:14 AM 28.0 °F 16.5 °F 25.0 °F 88% 30.10 in 2.0 mi NNW 15.0 mph 23.0 mph N/A   Overcast
8:52 AM 28.0 °F 15.7 °F 25.0 °F 88% 30.14 in 2.5 mi NW 17.3 mph 24.2 mph N/A   Overcast
9:52 AM 27.0 °F 14.3 °F 23.0 °F 85% 30.17 in 2.5 mi NNW 17.3 mph 26.5 mph N/A   Overcast
10:19 AM 27.0 °F 15.2 °F 23.0 °F 85% 30.15 in 3.0 mi NNW 15.0 mph 27.6 mph N/A   Overcast
10:52 AM 27.0 °F 12.8 °F 23.0 °F 85% 30.18 in 3.0 mi NNW 21.9 mph 29.9 mph N/A   Overcast
11:52 AM 28.9 °F 18.2 °F 23.0 °F 78% 30.18 in 4.0 mi NNW 13.8 mph - N/A   Haze
12:52 PM 30.0 °F 19.5 °F 23.0 °F 75% 30.17 in 5.0 mi NNW 13.8 mph 24.2 mph N/A   Haze
1:28 PM 30.9 °F 19.8 °F 24.1 °F 76% 30.15 in 6.0 mi NW 16.1 mph - N/A   Haze
1:52 PM 30.9 °F 19.4 °F 24.1 °F 76% 30.17 in 7.0 mi NW 17.3 mph - N/A   Overcast
2:52 PM 30.0 °F 19.5 °F 23.0 °F 75% 30.20 in 8.0 mi NW 13.8 mph - N/A   Overcast
3:41 PM 30.0 °F 19.5 °F 21.9 °F 72% 30.19 in 10.0 mi NNW 13.8 mph - N/A   Partly Cloudy
3:52 PM 30.0 °F 22.4 °F 21.9 °F 72% 30.22 in 9.0 mi NNW 8.1 mph - N/A   Partly Cloudy
4:52 PM 28.9 °F 23.9 °F 21.9 °F 75% 30.23 in 7.0 mi North 4.6 mph - N/A   Clear
5:52 PM 27.0 °F - 21.0 °F 78% 30.25 in 8.0 mi Calm Calm - N/A   Clear
6:52 PM 23.0 °F 18.4 °F 19.0 °F 85% 30.26 in 6.0 mi West 3.5 mph - N/A   Clear
7:52 PM 21.9 °F 15.7 °F 18.0 °F 85% 30.27 in 6.0 mi WNW 4.6 mph - N/A   Clear
8:52 PM 24.1 °F - 19.0 °F 81% 30.28 in 8.0 mi Calm Calm - N/A   Clear
9:52 PM 21.0 °F 16.2 °F 17.1 °F 85% 30.28 in 7.0 mi WNW 3.5 mph - N/A   Clear
10:52 PM 23.0 °F 17.0 °F 18.0 °F 81% 30.28 in 8.0 mi NNW 4.6 mph - N/A   Clear
11:52 PM 21.0 °F - 16.0 °F 81% 30.27 in 8.0 mi Calm Calm - N/A   Clear